Temp
-14 -14 -15 -15 -14 -14 -14 -13 -14 -14 -13 -13 -13 -13 -12 -12 -11 -11 -11 -10 -11 -11 -11 -11 -13 -14 -14 -15 -18 -20 -20 -20 -19 -19 -17 -18 -18 -17 -17 -16 -15 -14 -13 -11 -10
-15 -15 -15 -15 -15 -15 -15 -14 -14 -14 -14 -14 -13 -13 -13 -12 -11 -11 -11 -11 -11 -12 -12 -13 -14 -14 -15 -17 -20 -21 -21 -21 -20 -20 -19 -19 -19 -17 -17 -16 -15 -14 -13 -13 -11
-15 -15 -16 -15 -15 -15 -15 -15 -14 -14 -15 -14 -14 -13 -13 -13 -12 -12 -12 -12 -12 -13 -13 -14 -15 -16 -19 -20 -21 -22 -22 -22 -21 -20 -19 -19 -19 -18 -15 -16 -15 -15 -14 -13 -11
-16 -16 -15 -16 -16 -16 -15 -15 -15 -15 -15 -15 -14 -14 -13 -13 -13 -12 -12 -12 -13 -14 -15 -16 -19 -20 -22 -22 -23 -23 -23 -23 -21 -21 -20 -19 -19 -17 -15 -15 -15 -15 -15 -14 -13
-16 -16 -16 -16 -17 -16 -16 -16 -16 -16 -15 -15 -15 -14 -14 -14 -14 -13 -13 -13 -15 -16 -18 -19 -22 -22 -22 -23 -24 -23 -23 -23 -22 -21 -20 -19 -18 -17 -16 -15 -14 -14 -14 -14 -13
-16 -17 -17 -17 -17 -17 -16 -16 -16 -16 -16 -16 -15 -15 -14 -15 -14 -14 -15 -16 -17 -18 -21 -21 -21 -23 -23 -23 -24 -24 -24 -23 -22 -21 -21 -19 -18 -17 -16 -15 -16 -14 -14 -14 -13
-17 -17 -17 -18 -18 -17 -17 -17 -17 -16 -16 -16 -16 -16 -15 -15 -15 -15 -17 -18 -18 -20 -21 -20 -22 -24 -23 -24 -24 -23 -23 -22 -22 -21 -20 -19 -18 -17 -16 -15 -16 -15 -14 -14 -13
-17 -18 -17 -18 -18 -18 -17 -17 -17 -17 -17 -16 -15 -16 -16 -15 -16 -17 -18 -19 -20 -21 -22 -23 -24 -24 -23 -23 -23 -23 -22 -22 -21 -20 -19 -18 -17 -16 -16 -16 -15 -15 -14 -13 -14
-18 -18 -18 -18 -18 -18 -18 -17 -17 -17 -17 -16 -15 -16 -16 -16 -17 -19 -19 -20 -20 -22 -22 -22 -23 -23 -23 -23 -23 -22 -22 -22 -21 -21 -18 -18 -17 -17 -16 -15 -15 -15 -14 -13 -14
-19 -19 -19 -18 -18 -18 -18 -18 -17 -17 -16 -16 -16 -17 -17 -17 -18 -19 -20 -21 -21 -21 -23 -22 -22 -22 -22 -22 -22 -22 -22 -21 -21 -20 -19 -17 -17 -14 -16 -16 -15 -15 -14 -13 -13
-19 -19 -19 -18 -18 -18 -18 -18 -18 -17 -17 -17 -16 -16 -17 -18 -19 -20 -21 -21 -21 -21 -22 -22 -22 -22 -22 -22 -22 -22 -22 -21 -21 -20 -20 -18 -16 -17 -16 -15 -15 -15 -15 -14 -13
-19 -19 -19 -19 -18 -18 -18 -18 -18 -17 -17 -17 -16 -16 -17 -19 -20 -21 -22 -22 -22 -22 -22 -22 -22 -22 -22 -21 -22 -22 -21 -21 -21 -20 -20 -18 -18 -15 -16 -16 -15 -15 -14 -14 -14
-21 -20 -19 -19 -19 -18 -18 -18 -18 -17 -17 -17 -16 -18 -18 -19 -20 -22 -23 -23 -23 -22 -22 -22 -22 -22 -21 -21 -21 -21 -21 -21 -20 -19 -18 -18 -17 -16 -16 -16 -16 -15 -15 -15 -15
-23 -23 -21 -20 -19 -18 -18 -18 -18 -17 -17 -17 -17 -18 -19 -20 -21 -23 -23 -23 -23 -23 -23 -23 -21 -22 -22 -21 -21 -21 -21 -21 -19 -19 -19 -18 -17 -16 -16 -16 -16 -15 -15 -15 -15
-25 -25 -23 -21 -19 -18 -19 -18 -18 -18 -17 -17 -18 -19 -19 -20 -22 -23 -24 -24 -23 -23 -22 -22 -21 -22 -21 -21 -21 -21 -21 -20 -19 -18 -19 -18 -17 -17 -16 -15 -16 -16 -16 -16 -15
-26 -25 -24 -22 -19 -19 -19 -18 -18 -17 -17 -18 -19 -19 -20 -20 -22 -23 -24 -23 -23 -23 -22 -22 -21 -22 -21 -21 -21 -20 -20 -20 -19 -19 -18 -18 -17 -17 -16 -16 -15 -15 -16 -16 -16
-27 -26 -24 -22 -20 -19 -19 -18 -18 -18 -17 -18 -19 -19 -20 -20 -20 -22 -23 -23 -23 -23 -22 -21 -21 -21 -21 -21 -20 -19 -19 -18 -19 -19 -18 -18 -17 -17 -16 -16 -15 -15 -15 -15 -15
-28 -26 -25 -23 -20 -19 -19 -18 -18 -18 -17 -18 -19 -19 -20 -20 -21 -22 -22 -23 -22 -22 -22 -21 -21 -21 -20 -20 -20 -19 -19 -18 -18 -18 -18 -18 -18 -17 -16 -16 -16 -15 -15 -15 -15
-27 -26 -24 -22 -19 -19 -19 -18 -18 -18 -18 -19 -19 -20 -19 -20 -21 -21 -21 -22 -22 -21 -21 -21 -21 -21 -20 -20 -20 -19 -19 -18 -18 -18 -18 -18 -18 -17 -17 -17 -16 -16 -15 -16 -16
-28 -25 -21 -20 -20 -19 -18 -17 -18 -18 -18 -19 -19 -20 -19 -20 -20 -21 -21 -22 -21 -21 -21 -21 -21 -20 -20 -19 -19 -19 -19 -19 -18 -18 -17 -18 -18 -17 -17 -17 -16 -16 -16 -16 -16
-25 -21 -20 -20 -19 -18 -17 -18 -18 -18 -19 -19 -20 -20 -19 -20 -20 -21 -21 -21 -21 -21 -21 -20 -20 -20 -19 -19 -19 -19 -19 -18 -18 -18 -17 -18 -18 -17 -17 -17 -17 -16 -15 -15 -16
-22 -21 -20 -20 -19 -17 -18 -17 -18 -18 -19 -19 -20 -20 -20 -20 -20 -21 -21 -21 -21 -21 -20 -20 -20 -20 -20 -19 -19 -19 -19 -18 -18 -18 -18 -17 -18 -17 -17 -17 -17 -17 -16 -16 -16
-21 -20 -19 -18 -17 -18 -18 -18 -18 -18 -19 -19 -20 -20 -19 -19 -20 -20 -20 -20 -20 -20 -20 -20 -20 -20 -19 -19 -19 -19 -18 -18 -19 -18 -18 -18 -18 -17 -17 -17 -17 -17 -17 -16 -16
-19 -19 -18 -17 -18 -18 -17 -18 -18 -18 -18 -19 -20 -20 -19 -19 -20 -20 -20 -20 -20 -20 -19 -19 -19 -19 -19 -19 -19 -19 -19 -19 -19 -19 -19 -19 -18 -18 -18 -17 -17 -17 -16 -16 -16
-18 -17 -18 -17 -18 -18 -18 -18 -18 -17 -17 -18 -19 -20 -20 -19 -19 -20 -20 -20 -20 -20 -19 -19 -19 -19 -19 -19 -19 -19 -19 -18 -18 -18 -18 -18 -18 -18 -18 -18 -18 -18 -17 -17 -16
-17 -17 -18 -18 -18 -17 -17 -17 -17 -16 -16 -17 -19 -20 -20 -19 -19 -19 -19 -19 -19 -19 -19 -19 -19 -18 -18 -18 -19 -19 -18 -18 -18 -18 -18 -18 -18 -18 -18 -18 -18 -18 -18 -18 -18
-19 -18 -18 -18 -17 -17 -17 -16 -15 -15 -15 -17 -18 -19 -20 -19 -19 -20 -19 -19 -19 -19 -19 -19 -19 -19 -18 -18 -18 -18 -18 -18 -18 -19 -19 -19 -18 -18 -18 -18 -18 -18 -18 -18 -18
Height
5752 5749 5745 5742 5737 5733 5729 5725 5721 5719 5716 5713 5711 5708 5705 5701 5697 5693 5689 5685 5677 5672 5667 5661 5651 5645 5638 5635 5636 5638 5632 5639 5654 5663 5681 5691 5696 5712 5720 5726 5734 5745 5757 5771 5771
5742 5739 5736 5733 5729 5726 5720 5717 5713 5709 5706 5704 5700 5697 5693 5690 5686 5681 5675 5669 5664 5655 5648 5641 5631 5624 5619 5620 5614 5617 5617 5625 5648 5657 5668 5676 5689 5703 5706 5716 5724 5737 5748 5757 5768
5733 5729 5725 5723 5720 5716 5714 5709 5704 5700 5697 5694 5690 5686 5682 5678 5675 5668 5662 5654 5648 5639 5631 5621 5612 5605 5605 5601 5600 5600 5601 5618 5633 5648 5657 5666 5678 5691 5700 5711 5721 5732 5748 5757 5766
5721 5716 5716 5713 5710 5709 5705 5702 5697 5693 5688 5685 5680 5676 5671 5667 5663 5656 5649 5641 5631 5622 5614 5605 5598 5595 5594 5593 5590 5587 5594 5604 5622 5636 5644 5657 5668 5680 5688 5709 5719 5726 5739 5744 5751
5710 5706 5703 5701 5699 5697 5694 5693 5689 5684 5680 5676 5670 5665 5661 5657 5650 5643 5637 5629 5620 5610 5600 5594 5590 5587 5587 5586 5583 5580 5589 5597 5611 5625 5636 5649 5661 5669 5681 5698 5711 5720 5731 5738 5742
5697 5695 5692 5690 5689 5687 5685 5684 5681 5678 5673 5667 5660 5655 5651 5647 5639 5632 5624 5617 5610 5600 5593 5585 5581 5577 5579 5578 5577 5579 5582 5593 5603 5618 5632 5643 5657 5666 5679 5691 5703 5716 5724 5732 5738
5684 5681 5680 5680 5678 5677 5676 5674 5672 5668 5664 5658 5651 5647 5642 5636 5628 5622 5615 5608 5599 5592 5586 5575 5567 5569 5572 5573 5576 5579 5585 5593 5601 5616 5628 5636 5649 5664 5674 5687 5699 5712 5718 5726 5730
5670 5668 5668 5668 5669 5667 5666 5664 5663 5660 5656 5650 5642 5639 5632 5627 5620 5614 5608 5601 5595 5590 5582 5573 5567 5568 5571 5576 5579 5582 5588 5593 5603 5613 5622 5636 5652 5665 5675 5685 5693 5706 5713 5720 5726
5655 5654 5655 5655 5657 5657 5656 5655 5654 5652 5649 5642 5635 5631 5626 5619 5613 5606 5602 5597 5592 5588 5583 5577 5572 5573 5577 5579 5582 5584 5589 5596 5603 5613 5620 5640 5654 5664 5674 5681 5691 5702 5709 5718 5725
5639 5640 5642 5643 5644 5646 5646 5645 5645 5644 5642 5634 5628 5626 5620 5613 5606 5601 5596 5592 5590 5588 5584 5582 5579 5579 5580 5581 5585 5589 5593 5599 5606 5613 5619 5634 5641 5649 5664 5676 5688 5698 5705 5714 5723
5622 5625 5628 5630 5632 5635 5637 5636 5638 5637 5634 5628 5623 5617 5610 5604 5600 5597 5590 5589 5587 5586 5586 5583 5583 5582 5582 5583 5586 5591 5597 5603 5609 5615 5620 5630 5631 5647 5660 5671 5683 5694 5703 5711 5720
5601 5608 5612 5617 5620 5624 5626 5626 5628 5628 5627 5622 5616 5609 5603 5599 5595 5591 5586 5584 5584 5583 5584 5584 5583 5582 5582 5585 5589 5594 5599 5604 5609 5616 5627 5630 5630 5641 5656 5668 5679 5689 5698 5706 5715
5577 5582 5592 5602 5606 5612 5615 5618 5620 5620 5619 5617 5609 5602 5599 5595 5591 5586 5583 5579 5580 5582 5582 5582 5586 5583 5584 5588 5592 5597 5600 5606 5613 5620 5627 5634 5637 5646 5655 5667 5678 5685 5693 5701 5707
5559 5560 5570 5581 5595 5601 5606 5612 5613 5612 5611 5611 5602 5598 5595 5590 5586 5581 5577 5578 5580 5582 5582 5584 5587 5588 5588 5591 5595 5599 5604 5609 5616 5626 5633 5639 5638 5646 5656 5666 5673 5683 5691 5698 5707
5542 5549 5555 5565 5580 5589 5600 5605 5604 5607 5606 5604 5597 5595 5592 5588 5581 5576 5575 5577 5581 5582 5583 5586 5588 5590 5592 5595 5599 5603 5607 5612 5621 5627 5637 5642 5643 5648 5655 5663 5672 5681 5689 5697 5705
5528 5533 5544 5554 5566 5581 5591 5595 5599 5603 5601 5599 5594 5592 5590 5584 5575 5572 5575 5580 5582 5582 5584 5588 5591 5593 5596 5598 5603 5606 5610 5616 5624 5632 5638 5640 5644 5647 5653 5661 5670 5679 5688 5695 5702
5511 5519 5531 5541 5558 5573 5582 5589 5596 5596 5598 5594 5591 5592 5591 5585 5580 5576 5578 5581 5583 5585 5587 5590 5593 5594 5599 5602 5606 5609 5613 5620 5630 5637 5640 5642 5645 5649 5657 5664 5669 5678 5686 5694 5695
5497 5507 5516 5534 5553 5565 5575 5586 5591 5593 5593 5590 5590 5592 5592 5590 5587 5584 5583 5584 5586 5587 5590 5594 5597 5599 5601 5605 5609 5613 5617 5623 5631 5638 5642 5645 5647 5651 5656 5664 5669 5676 5683 5689 5693
5488 5497 5511 5532 5546 5559 5572 5581 5587 5590 5590 5588 5591 5591 5591 5593 5592 5588 5587 5589 5590 5591 5595 5598 5601 5603 5606 5609 5614 5620 5623 5628 5633 5639 5646 5650 5652 5655 5659 5665 5668 5676 5682 5686 5690
5482 5488 5512 5528 5542 5557 5570 5579 5584 5587 5586 5587 5589 5591 5592 5595 5595 5592 5592 5593 5594 5596 5598 5601 5606 5608 5610 5614 5618 5623 5629 5633 5635 5639 5645 5650 5654 5657 5661 5665 5670 5675 5682 5687 5692
5481 5498 5514 5529 5542 5559 5571 5577 5583 5584 5585 5587 5587 5590 5593 5596 5596 5595 5596 5597 5598 5601 5602 5606 5610 5613 5617 5619 5622 5626 5630 5634 5639 5643 5647 5651 5657 5660 5663 5668 5671 5675 5681 5686 5689
5487 5503 5516 5530 5549 5562 5570 5578 5581 5583 5584 5585 5587 5589 5593 5597 5598 5599 5600 5601 5603 5606 5608 5611 5614 5617 5621 5623 5626 5628 5633 5637 5642 5646 5648 5653 5659 5662 5666 5669 5673 5677 5681 5685 5688
5494 5510 5527 5542 5555 5566 5573 5579 5581 5582 5582 5584 5587 5591 5593 5598 5601 5602 5605 5606 5608 5610 5613 5616 5619 5623 5626 5629 5630 5634 5638 5640 5643 5647 5653 5658 5662 5664 5667 5671 5674 5677 5680 5683 5686
5505 5521 5535 5549 5559 5567 5575 5579 5581 5582 5581 5583 5587 5591 5595 5600 5603 5605 5608 5610 5613 5614 5617 5620 5622 5625 5628 5630 5633 5636 5639 5642 5645 5650 5653 5656 5660 5663 5666 5669 5671 5674 5676 5679 5681
5523 5536 5549 5559 5565 5572 5576 5579 5581 5583 5583 5583 5587 5592 5597 5601 5605 5608 5610 5613 5616 5618 5620 5623 5625 5627 5628 5630 5632 5635 5639 5642 5646 5650 5653 5655 5658 5660 5663 5666 5668 5671 5673 5675 5676
5540 5548 5555 5561 5567 5575 5579 5580 5582 5584 5585 5586 5588 5594 5598 5601 5605 5608 5612 5615 5617 5620 5622 5624 5627 5629 5632 5633 5634 5636 5638 5641 5645 5647 5650 5652 5655 5658 5659 5660 5662 5665 5668 5669 5671
5547 5554 5561 5567 5572 5577 5580 5583 5586 5588 5589 5591 5591 5594 5599 5603 5605 5608 5612 5615 5618 5620 5623 5625 5628 5630 5632 5635 5636 5638 5639 5640 5642 5644 5647 5650 5652 5654 5655 5657 5658 5659 5659 5660 5660
Wind_Speed
42 41 40 42 39 39 37 39 43 46 44 43 44 45 48 47 49 50 52 54 58 59 66 68 66 64 65 65 61 61 69 70 64 61 53 54 62 59 61 63 64 67 67 58 65
42 42 43 39 40 40 40 39 39 43 49 47 49 48 47 48 50 53 53 55 60 63 68 68 64 62 58 50 56 62 64 70 62 57 53 55 56 60 63 61 61 62 67 61 56
44 43 43 43 40 39 38 38 38 38 45 42 42 45 46 47 52 51 54 57 62 66 69 63 57 52 40 35 39 49 65 60 63 55 54 54 54 62 54 64 60 56 51 66 50
47 46 44 44 41 41 40 39 39 39 41 46 44 43 46 48 50 54 57 60 63 64 62 50 43 39 29 27 27 37 49 60 56 56 57 51 58 64 55 56 61 56 49 53 68
50 49 48 44 42 40 41 40 44 41 41 46 48 45 46 47 51 52 58 61 59 57 46 40 39 36 27 27 33 38 34 46 59 56 56 52 58 70 54 54 57 53 52 54 56
51 49 49 45 45 42 41 41 41 40 42 45 48 48 45 49 48 53 55 56 52 45 35 41 44 39 26 23 23 22 29 38 46 55 48 53 59 71 54 52 53 54 49 56 62
51 49 50 47 44 42 41 39 40 38 40 48 51 49 45 47 49 51 51 48 43 33 37 35 21 15 17 15 17 17 26 28 38 50 45 54 52 62 57 44 51 51 47 55 57
51 51 48 49 42 43 41 38 40 44 35 48 49 51 45 47 49 46 44 39 32 26 14 10 3 7 14 19 12 12 26 29 43 50 51 52 50 47 53 45 41 47 47 53 62
54 52 47 50 45 42 42 38 39 44 37 52 52 48 45 45 43 40 39 30 23 9 7 9 13 17 14 12 12 18 26 28 41 46 51 42 50 47 52 56 48 47 42 43 51
57 54 51 47 48 41 44 40 38 40 38 48 47 47 42 42 37 37 33 26 10 5 6 7 7 5 4 11 11 16 21 29 36 43 57 31 10 40 58 60 50 52 50 42 33
59 57 51 50 48 44 42 43 38 37 37 46 47 45 45 35 33 33 27 23 8 10 8 3 3 6 4 8 17 16 19 24 28 42 58 13 18 40 53 54 55 54 50 44 40
63 62 58 49 48 47 42 43 40 39 37 43 45 44 34 33 31 30 22 19 13 8 11 15 5 12 10 9 13 16 20 21 25 39 52 11 10 28 55 54 50 52 57 45 42
66 66 63 51 48 48 44 41 40 38 37 42 44 31 34 31 29 25 17 10 7 7 8 12 7 6 12 10 10 12 18 20 18 47 40 7 18 38 46 49 50 53 52 44 49
46 44 51 58 48 48 45 38 36 38 40 41 32 32 31 28 27 19 10 4 5 4 8 3 9 3 6 11 9 9 11 20 26 31 31 14 18 40 42 43 46 49 44 47 41
41 40 37 45 50 48 40 35 35 35 35 31 30 30 26 27 27 14 2 7 4 4 3 5 7 10 11 7 7 8 11 18 29 16 17 5 10 23 38 37 44 45 46 48 44
34 38 43 40 51 47 38 34 34 29 34 28 25 28 21 24 17 6 8 12 5 5 9 11 10 13 14 17 17 13 12 18 32 17 1 6 11 21 27 44 45 39 40 40 46
27 34 41 44 45 43 38 33 27 25 28 25 23 16 15 12 9 12 16 12 7 11 16 16 9 13 18 18 16 10 14 24 20 19 6 8 10 10 20 21 42 38 38 42 37
27 28 51 44 42 42 38 29 22 27 27 23 21 6 7 7 12 16 14 10 12 11 15 17 17 11 20 23 24 12 15 18 15 24 10 3 10 12 9 19 19 40 40 35 35
28 25 51 43 44 41 34 28 24 25 22 18 12 3 7 5 8 16 15 13 11 16 21 15 16 14 16 16 27 19 15 15 12 17 17 6 10 14 11 8 13 19 30 33 30
18 41 55 51 43 39 30 23 22 20 18 16 1 4 10 10 10 13 13 9 15 17 20 21 20 12 21 12 23 23 21 19 20 19 13 15 11 10 12 11 7 8 9 26 29
17 51 56 47 44 34 24 18 14 16 14 10 8 5 12 15 11 11 11 14 15 21 24 20 20 18 19 18 18 21 20 20 16 17 17 16 15 13 11 11 13 10 17 14 16
38 54 53 49 40 30 21 10 8 15 13 4 11 7 11 16 12 15 17 20 18 19 18 15 18 18 16 16 17 19 17 15 15 15 16 15 13 12 12 10 8 10 18 15 17
49 55 47 41 33 23 16 9 8 11 12 4 14 8 21 19 17 15 15 13 18 21 19 16 17 16 13 14 15 16 14 11 14 16 17 16 14 13 11 11 11 11 14 16 19
57 51 45 37 28 22 15 8 5 8 8 5 16 11 23 20 17 13 16 20 19 22 19 16 12 9 9 11 11 11 11 12 13 11 13 13 15 14 13 15 18 20 21 22 23
50 45 36 29 21 16 11 6 1 3 5 6 14 16 16 21 16 14 19 20 18 15 9 11 11 11 9 7 7 9 11 11 10 10 12 10 11 13 14 16 18 21 24 28 31
40 36 29 24 21 15 11 8 4 5 3 7 13 18 17 18 21 21 16 16 8 6 12 10 10 10 9 8 7 8 8 7 8 9 8 9 11 12 12 13 16 19 22 26 29
38 29 24 20 17 15 15 12 11 10 15 8 14 19 18 15 11 21 22 18 14 9 11 6 6 5 4 4 5 8 8 6 5 6 9 11 12 13 13 16 19 22 24 28 30
Wind_Direction
296 297 299 306 307 308 309 314 293 284 287 290 291 293 292 291 289 289 293 294 302 303 300 301 299 292 284 275 262 246 240 237 232 235 226 221 218 214 218 222 220 224 226 217 213
293 291 291 295 301 308 308 306 309 300 283 288 289 289 291 292 292 295 297 301 303 306 304 304 299 292 284 276 257 243 238 236 229 232 225 221 216 210 219 217 222 221 221 221 218
292 289 288 291 292 298 302 300 306 307 303 291 296 293 292 293 294 303 303 305 308 307 307 306 299 292 288 270 262 243 236 233 226 226 223 218 209 208 217 219 219 221 220 222 214
293 288 287 288 288 291 295 301 302 305 306 293 298 300 296 297 305 306 307 309 311 312 311 306 299 292 279 281 258 247 235 228 219 219 220 215 206 202 209 214 220 222 218 216 223
289 289 287 286 288 289 289 295 303 301 307 302 296 307 300 306 311 311 310 312 315 317 314 306 296 280 266 268 260 254 239 221 216 212 215 207 201 205 211 203 215 212 217 219 218
286 286 286 286 286 289 289 293 299 296 304 306 306 306 307 313 313 314 316 318 322 320 308 297 285 269 259 264 256 246 218 204 209 207 209 203 200 203 203 208 211 207 212 219 221
281 284 283 283 283 287 290 293 294 308 299 307 300 307 315 315 317 318 321 325 329 317 311 300 288 245 257 235 217 183 196 198 199 198 203 203 203 199 207 204 207 208 213 218 223
278 282 280 280 279 280 285 290 293 293 301 303 309 308 317 317 317 320 325 330 327 314 331 342 30 185 161 164 178 224 205 206 188 193 193 193 202 196 210 212 200 203 215 222 228
281 280 281 275 275 277 281 287 287 294 296 304 307 311 318 318 319 323 328 330 328 333 38 62 113 141 143 172 210 204 198 189 192 197 192 179 184 201 206 211 207 207 211 220 224
279 281 278 273 273 271 278 282 286 293 288 299 305 312 317 321 324 323 327 331 315 196 101 113 123 178 263 189 198 210 202 188 196 200 198 178 195 175 203 207 205 209 213 209 218
275 274 275 272 267 270 275 278 281 288 294 304 304 314 321 323 325 323 324 326 247 203 248 213 142 222 205 192 200 201 190 198 205 202 202 205 155 177 197 203 209 209 213 213 206
272 265 266 265 261 265 268 271 277 286 290 301 305 317 323 327 322 322 323 312 224 243 256 248 281 344 196 172 194 190 192 203 204 202 199 260 283 188 199 200 207 209 213 214 206
269 265 258 253 253 257 261 267 275 285 278 302 311 327 328 326 322 318 320 300 217 255 282 287 264 34 154 160 189 180 201 207 192 196 194 290 181 188 201 199 205 212 214 219 214
265 262 252 249 242 248 255 262 273 273 283 305 318 330 329 323 319 317 314 243 198 203 292 266 219 69 168 160 152 170 192 198 145 193 212 239 191 175 204 202 207 208 214 217 226
257 248 245 240 232 239 248 255 263 269 289 304 322 336 331 326 318 319 229 162 177 233 328 196 202 129 117 148 150 147 169 199 174 120 183 186 146 199 200 190 208 211 216 219 223
278 250 240 228 224 230 237 246 257 270 295 307 335 341 337 334 335 338 148 151 123 133 138 162 160 132 127 130 135 106 153 194 189 207 23 100 111 190 175 198 210 217 213 220 229
270 237 225 218 218 222 228 236 250 274 290 315 345 347 357 38 30 99 135 147 118 114 135 138 165 135 134 127 133 91 174 192 205 199 184 114 133 158 194 198 212 198 215 219 211
267 232 210 210 205 212 218 224 249 270 288 323 349 356 92 62 80 102 109 101 119 109 129 137 147 138 114 133 124 117 158 194 190 183 209 73 121 146 198 209 188 215 220 218 215
230 220 199 192 193 203 208 216 240 266 293 341 337 31 116 138 98 105 102 90 83 114 131 136 142 113 123 120 135 139 118 133 169 182 211 239 132 129 143 199 168 172 216 220 227
233 209 179 183 187 195 200 211 237 270 309 334 113 77 135 146 123 115 102 95 108 111 113 123 141 120 126 140 134 140 139 138 129 138 166 173 151 120 141 157 210 211 191 208 220
203 173 175 178 182 184 184 212 244 280 320 336 141 116 155 157 135 90 88 108 123 120 114 114 132 121 109 118 121 117 131 151 152 139 133 152 163 153 143 160 178 187 240 235 217
162 169 171 175 173 173 183 199 253 297 317 11 147 123 155 166 143 97 107 104 108 129 124 102 96 122 106 118 115 117 120 123 141 139 144 147 154 167 166 163 169 196 216 228 237
156 165 168 165 163 166 177 195 275 296 324 82 143 134 160 157 142 101 107 116 104 104 108 108 105 106 114 119 126 133 137 139 146 152 169 180 185 189 200 203 212 225 229 223 229
156 160 161 158 158 159 170 207 263 322 348 84 145 142 165 166 157 137 115 121 120 116 112 113 112 102 107 116 122 130 140 141 156 172 173 178 187 195 205 214 217 219 229 239 241
154 151 151 149 147 157 174 171 213 23 26 79 143 151 159 179 170 153 135 131 128 134 127 126 120 113 111 114 124 128 121 125 144 172 191 196 215 208 216 227 234 237 236 235 237
144 145 150 152 159 170 172 144 120 98 93 132 147 163 163 176 191 194 165 168 191 178 158 130 98 93 87 85 118 140 153 147 155 167 179 189 204 224 241 246 246 243 244 247 247
146 149 150 157 159 163 157 134 122 119 121 120 141 163 174 167 167 188 188 193 214 207 183 176 153 134 111 71 105 128 136 143 164 168 177 190 208 222 233 242 247 253 257 257 256